SES-1

Last updated on Thu Oct 30 2025 00:02:48 GMT+0000 (Coordinated Universal Time)

1 36516U 10016A 25302.49350360 -.00000105 00000+0 00000+0 0 9996 2 36516 0.0162 308.6228 0002531 270.7085 255.4313 1.00271171 56724
UTC large
Height (km)
Speed (km/s)
/
Latitude / Longitude
Inclination (degrees)
Orbital Period (minutes)
Azimuth
Elevation
Range (km)
Doppler Factor

Next 0 passes for location: London (51.5072 / 0.1276)

Sorry there are no passes over London.